sat.trackr.live / text

‹ back to catalog

STARLINK-31741

NORAD 59550 · 2024-074S

PAYLOAD ACTIVE UNKNOWN

§ Identity

Operator
Country
US
Launch date
2024-04-18
Launch site
AFETR
Launch vehicle
Mass (kg)
RCS (m²)

Purposes: comms

External: N2YO · Heavens-Above · Gunter

§ Orbital elements

Epoch: 2026-05-24T16:56:45.257568Z

Period
94.27 min
Inclination
43.0002°
Eccentricity
0.0001548
Mean motion
15.27551764 rev/d
Perigee alt
482.1 km
Apogee alt
484.2 km
Semi-major
6,861.3 km
B*
-2.7888e-5
RAAN
273.9164°
Arg perigee
9.7312°
Mean anomaly
350.3569°
Rev number
11,764

§ Raw data

STARLINK-317411 59550U 24074S   26144.70607937 -.00001029  00000+0 -27888-4 0  99972 59550  43.0002 273.9164 0001548   9.7312 350.3569 15.27551764117640

JSON: /api/v1/satellites/59550 · /tle

For live sub-satellite position, see the globe view (requires WebGL).

§ Visibility from observer

Set your observer location to see the next 7 days of passes ≥ 10°. The values pass through the URL so the page stays shareable.

No JS? Fill the form by hand. The geolocation button needs JavaScript.